Voltar ao catálogo

ARIANE 42P DEB

AtivoLEO
NORAD 44511·DEBRIS·🇫🇷 France

Lançado Aug 10, 1992 de Guiana Space Centre

Loading…

Próximas Passagens (próximas 24 horas)

TLE

AtualizadoSource: Space-Track

Época: Sep 14, 2026, 12:27 UTC

1 44511U 92052J   26257.51939242  .00001151  00000-0  48776-2 0  9992
2 44511  66.0651  91.5101 0060175 241.9536 117.5388 12.85846797331712

Acompanhe ARIANE 42P DEB em tempo real com AllMySat

Download on the App Store